ZHONGXING-2C

Last updated on Tue Sep 22 2026 00:03:13 GMT+0000 (Coordinated Universal Time)

1 41021U 15063A 26264.65217314 -.00000327 00000+0 00000+0 0 9993 2 41021 0.5155 86.5512 0009838 116.2865 135.9066 1.00269209 39944
UTC large
Height (km)
Speed (km/s)
/
Latitude / Longitude
Inclination (degrees)
Orbital Period (minutes)
Azimuth
Elevation
Range (km)
Doppler Factor

Next 0 passes for location: London (51.5072 / 0.1276)

No passes found over London.
ZHONGXING-2C